Theta_e
327 327 327 326 326 326 326 325 325 326 327 327 327 327 327 327 327 327 328 328 328 327 327 328 327 327 327 327 328 326 325 326 327 328 328 328 328 327 325 326 326 326 326 326 326 327 327 327 327 328 328 329 329 329 328 328 329 330 330 330 329 329 329 329 330 330 330 330 330 330 330 330 330 331 331 331 331 330 330 331 331 332 331 331 331
326 325 325 325 325 325 324 323 323 324 324 323 323 323 322 323 323 323 324 324 323 321 322 323 321 321 320 320 322 322 323 326 327 327 328 327 327 326 325 326 326 325 326 325 325 325 325 326 326 327 327 328 329 328 328 327 328 328 329 330 330 329 329 329 329 330 330 330 331 331 331 331 331 331 331 331 331 331 330 330 330 331 332 331 331
322 322 323 323 322 320 317 316 317 319 319 318 318 317 316 317 318 317 317 317 315 314 316 315 313 313 313 313 315 319 322 325 326 327 326 326 326 326 326 326 324 323 323 323 321 321 322 324 325 325 326 327 327 328 327 327 327 327 327 328 329 329 329 330 330 330 330 331 331 332 332 332 332 332 331 331 331 331 331 331 331 331 331 331 332
318 318 318 318 316 313 312 311 311 312 313 313 313 313 311 311 313 311 310 310 308 309 309 307 307 308 308 308 312 316 319 323 326 325 323 323 325 326 326 326 323 320 320 319 317 317 318 321 323 323 323 325 325 325 325 326 326 327 327 327 327 328 328 329 329 330 329 330 330 330 331 331 331 331 331 331 331 331 331 331 332 332 332 332 332
315 314 313 312 310 308 307 306 306 306 308 309 309 309 307 307 308 306 305 304 303 304 302 301 302 302 302 305 310 313 316 322 325 323 318 320 324 324 325 324 320 319 320 318 313 313 314 316 319 319 319 320 321 321 322 322 322 323 324 324 324 325 326 326 327 328 327 328 329 330 330 330 330 330 330 331 330 331 330 331 331 331 332 332 332
310 309 308 306 304 303 302 301 301 301 303 304 303 303 302 301 303 301 300 299 299 298 298 298 298 299 299 302 308 312 317 322 323 318 312 316 320 321 324 317 314 318 319 316 310 306 308 310 313 316 316 316 315 315 315 315 317 318 320 320 321 321 322 323 323 324 325 326 327 328 329 330 330 330 330 330 330 330 330 330 329 329 330 330 331
304 305 303 301 298 297 297 296 297 296 297 298 298 298 297 296 297 297 297 296 296 296 296 296 296 297 297 300 307 311 318 320 317 312 307 313 316 320 319 306 308 315 309 308 303 299 304 304 305 309 311 311 310 308 307 310 314 317 318 319 320 320 321 322 322 322 323 324 325 326 327 327 328 328 329 329 330 330 330 330 330 330 331 331 331
299 300 299 296 294 293 293 293 293 293 293 294 294 294 294 294 294 295 296 295 295 295 295 296 296 298 298 300 305 311 318 317 312 306 303 309 313 317 310 297 307 310 299 297 295 302 308 299 296 300 300 302 302 302 304 310 315 317 319 320 321 321 321 322 322 322 323 323 323 324 325 326 326 326 327 327 328 329 329 328 329 329 330 330 331
296 296 295 293 292 291 291 291 291 292 292 292 292 292 292 293 294 294 294 294 294 294 294 295 296 297 298 299 304 311 317 315 309 302 301 306 311 312 301 295 308 304 293 293 297 307 307 294 295 296 294 295 295 300 308 313 316 316 317 318 319 319 320 321 321 322 323 323 323 324 325 325 326 326 326 326 326 327 328 328 328 327 327 327 328
294 293 292 291 290 290 290 290 290 290 290 290 291 290 291 292 293 294 294 293 293 294 294 295 297 298 299 299 302 310 316 313 304 297 301 304 307 306 297 297 306 299 291 294 301 306 298 294 299 295 292 294 295 304 312 314 313 313 314 314 316 317 318 319 319 321 321 321 322 322 323 324 325 325 325 325 325 326 327 327 328 328 327 327 326
292 291 290 290 289 289 289 289 289 289 289 289 290 290 290 292 292 293 294 293 292 293 294 295 297 299 300 300 301 309 313 310 299 294 301 302 302 302 295 299 303 295 290 295 302 300 294 297 298 292 293 295 298 307 312 312 311 311 311 311 313 314 315 316 317 318 318 318 318 319 320 320 322 323 324 324 324 325 325 326 326 327 328 328 327
290 290 289 288 288 288 288 288 287 288 288 288 289 289 290 291 292 293 294 293 292 292 293 296 299 298 302 303 302 307 309 305 296 295 301 299 299 299 294 299 299 291 290 297 300 295 292 296 294 291 296 298 301 307 310 310 310 309 308 308 309 311 312 313 314 315 315 315 316 317 317 317 318 319 321 322 322 323 324 324 325 326 327 327 328
288 288 288 287 287 287 287 286 287 287 286 287 287 287 288 289 292 293 293 293 293 293 292 294 297 296 300 303 303 306 307 301 294 295 299 297 298 297 294 297 294 288 292 297 295 291 292 294 291 294 297 298 303 306 307 307 307 307 307 306 306 307 308 309 310 311 311 312 313 314 314 314 314 315 317 318 319 320 321 322 323 324 325 325 326
287 287 287 287 286 286 286 285 286 286 286 285 285 286 286 287 291 292 292 292 293 294 291 291 293 294 298 302 302 304 305 300 293 293 298 296 296 295 294 295 291 288 293 295 291 290 292 291 292 295 297 299 303 304 304 302 302 303 304 304 303 303 304 305 306 307 307 308 309 311 312 312 312 312 314 315 316 317 318 319 320 321 322 323 324
285 286 286 286 285 285 285 285 285 285 285 285 285 285 285 286 289 290 291 292 292 293 291 289 290 293 296 298 300 301 302 299 293 292 296 295 295 294 293 294 289 289 293 292 289 290 291 290 292 296 297 300 302 301 301 298 297 297 298 298 297 298 300 301 303 303 304 305 306 308 309 309 310 310 311 312 313 314 315 316 317 319 320 321 323
284 284 285 284 284 284 284 284 284 284 284 284 285 285 285 285 287 289 290 291 292 292 291 288 288 291 294 295 297 298 297 295 293 294 295 294 295 293 292 292 289 289 292 290 289 290 290 291 293 295 298 300 299 298 297 295 293 292 291 291 292 294 296 298 299 300 302 302 303 304 305 306 307 308 309 309 310 311 312 313 314 316 317 319 321
283 283 283 284 284 283 283 283 283 283 283 284 284 284 284 284 286 288 289 290 291 292 291 289 287 288 290 292 294 294 292 292 293 295 295 293 294 292 292 291 288 290 291 289 289 289 289 291 293 295 297 297 295 295 294 292 290 289 288 287 288 291 293 295 297 298 299 300 301 302 302 303 304 305 306 307 308 309 310 311 311 313 315 317 319
283 282 282 283 283 282 282 282 282 282 283 283 283 284 283 283 285 287 288 288 290 291 289 288 288 287 288 290 291 291 291 292 293 293 293 293 293 292 291 290 289 290 290 289 289 288 289 291 292 294 294 292 292 293 292 290 290 289 287 285 285 287 289 291 294 296 297 299 300 300 300 301 301 302 303 305 306 307 308 309 310 311 312 315 316
282 282 282 282 282 282 281 281 282 282 282 282 282 283 283 283 283 285 287 287 288 289 288 287 288 288 288 289 290 290 290 291 291 291 290 291 291 291 291 289 289 290 289 289 289 288 289 290 290 292 291 288 289 292 290 289 288 288 287 286 286 287 288 290 292 294 296 297 298 299 299 299 299 300 301 303 304 305 306 307 308 309 310 312 313
281 281 281 281 281 281 281 281 281 281 281 281 281 281 281 282 282 283 285 286 287 287 287 286 287 287 288 288 289 290 290 290 290 290 289 289 290 290 290 289 289 289 289 288 288 288 289 289 289 290 289 287 289 291 290 288 287 287 287 286 285 287 288 290 291 293 294 296 296 297 298 298 298 299 300 301 302 303 304 305 306 307 308 309 310
280 280 280 280 280 280 280 280 280 280 280 280 280 280 280 281 281 282 283 285 286 286 285 286 286 286 287 288 289 289 289 289 289 289 289 288 289 289 289 288 289 288 288 288 287 288 288 288 289 289 288 287 289 290 289 287 287 287 286 285 284 284 286 288 290 292 293 294 295 296 296 296 297 298 299 299 300 301 302 303 304 305 306 307 307
280 280 280 280 280 280 280 280 280 280 280 280 280 280 280 280 280 281 282 283 284 284 284 285 285 286 286 287 287 288 288 288 288 288 288 288 288 288 288 288 288 288 288 287 287 288 288 287 288 288 287 287 288 288 287 286 286 286 286 285 285 284 285 287 288 290 292 293 293 294 294 294 295 296 297 298 299 299 300 301 302 303 304 304 305
279 279 279 279 279 279 279 279 279 279 279 279 279 279 280 280 280 280 281 281 282 283 283 284 284 285 285 286 286 286 287 287 287 286 286 287 287 287 287 287 287 287 287 287 287 287 287 287 288 287 286 287 287 286 285 285 285 285 285 285 284 284 285 286 287 289 290 291 292 292 292 292 293 294 295 296 297 297 298 299 299 300 301 302 303
278 278 279 279 278 278 279 279 278 278 279 279 279 279 279 279 279 280 280 280 281 282 283 283 284 284 284 285 285 285 286 286 285 285 285 286 286 286 287 286 286 287 287 286 287 287 286 287 287 286 286 286 286 285 284 283 284 284 284 284 282 282 284 285 286 288 289 289 290 290 291 291 292 293 294 294 295 296 296 297 297 298 299 300 301
278 278 278 278 278 278 278 278 278 278 278 278 278 278 278 279 279 279 279 280 279 281 282 282 283 283 283 284 284 284 285 285 284 284 284 285 285 286 286 286 286 286 286 286 286 285 286 286 285 284 285 285 284 283 282 282 283 283 283 282 281 282 283 284 285 286 287 288 288 289 289 290 291 292 293 293 294 294 294 295 295 296 297 298 298
277 277 277 278 277 278 278 278 278 278 278 278 278 278 278 278 278 278 279 279 279 280 281 281 282 282 282 283 283 283 284 284 283 283 283 284 284 285 285 285 285 285 285 285 284 284 285 284 283 283 283 283 282 282 282 282 283 283 282 281 281 282 283 284 285 285 286 286 287 287 288 289 290 291 292 292 292 292 293 293 294 295 295 296 296
277 277 277 277 277 277 277 277 277 277 277 277 278 278 278 278 278 277 278 278 278 280 281 281 281 282 282 282 282 283 283 283 283 282 283 283 284 284 284 284 284 284 284 283 283 283 283 283 282 282 282 282 281 281 281 282 282 282 282 281 282 282 282 283 284 284 284 285 285 286 287 288 289 290 290 291 291 291 292 292 292 293 293 294 295
277 277 277 277 277 277 277 277 277 277 277 277 277 277 277 277 277 277 277 278 278 279 281 281 281 281 281 281 282 282 282 282 282 282 282 283 283 284 284 283 282 282 282 282 282 283 282 281 281 281 281 281 281 281 281 281 281 281 281 281 281 281 282 282 282 281 282 284 284 285 286 287 288 288 289 290 290 290 290 290 291 291 292 293 294
277 277 277 277 277 277 277 277 277 277 277 277 277 277 277 277 277 277 277 278 278 280 280 280 280 281 281 281 281 281 281 281 281 281 282 282 283 283 283 282 282 281 281 281 281 282 281 281 281 281 280 281 281 281 281 281 281 281 281 281 281 281 281 281 280 280 281 283 284 284 285 286 286 287 287 288 288 288 288 289 290 291 291 292 293
277 277 277 277 277 277 277 276 276 276 276 276 276 276 276 276 276 277 277 277 278 279 280 280 280 280 280 280 280 280 280 280 280 281 281 282 282 282 282 281 281 281 280 280 280 281 281 280 280 280 280 280 280 280 280 280 280 280 280 280 280 280 280 280 280 280 281 282 282 283 283 284 285 285 285 286 286 286 287 287 288 289 290 291 291
277 277 277 276 276 276 276 276 275 275 275 275 275 275 275 276 276 276 276 277 278 279 279 279 279 279 279 279 279 279 279 279 280 280 281 281 282 282 281 280 280 280 280 279 279 280 280 279 279 280 280 280 279 279 280 280 280 280 279 279 279 279 279 279 279 279 280 281 281 282 282 283 283 283 283 284 284 285 285 286 287 287 288 288 288
277 276 276 276 276 276 275 275 275 275 275 275 275 275 275 275 275 276 276 277 278 278 278 278 278 278 278 279 279 279 279 279 279 279 280 280 281 281 280 280 279 279 279 279 279 279 279 279 279 279 279 279 279 279 279 279 279 279 279 279 279 279 279 278 278 279 279 280 280 281 281 281 281 281 281 282 282 283 284 284 285 285 285 285 285
276 276 276 276 275 275 275 275 275 274 274 274 274 274 274 275 275 276 276 277 278 278 278 278 278 278 278 278 278 278 278 278 278 279 279 279 280 279 279 279 278 278 278 278 278 278 278 278 279 278 278 278 278 278 278 279 278 278 278 278 278 278 278 278 278 278 279 279 279 280 280 280 280 280 280 280 281 282 282 283 283 283 283 283 283
276 276 275 275 275 275 275 274 274 274 274 274 274 274 274 274 275 276 277 277 277 277 277 277 277 277 277 277 278 278 278 278 278 278 277 278 278 278 278 278 278 278 277 277 277 277 278 278 278 278 277 278 278 278 278 278 278 278 278 278 278 277 277 277 278 278 278 278 278 278 278 278 278 279 279 280 280 281 281 281 282 282 282 282 283
276 275 275 275 275 274 274 274 274 274 274 273 273 273 274 274 275 276 276 277 277 277 277 277 277 277 277 277 277 277 277 277 277 277 277 277 277 278 278 278 277 277 277 276 276 277 277 277 277 277 277 277 277 277 277 277 278 278 278 277 277 277 277 277 277 278 277 277 277 277 277 277 277 278 279 279 280 280 280 281 281 281 281 282 282
275 275 275 275 275 274 274 274 273 273 273 273 273 273 274 274 275 276 276 276 276 276 276 276 276 276 276 276 276 276 276 276 276 276 276 276 277 277 277 277 277 277 276 276 276 276 276 277 277 276 276 277 277 277 277 277 278 278 277 276 276 276 276 277 277 277 276 276 276 276 276 276 277 277 278 279 279 279 279 280 280 280 281 281 281
275 275 275 274 274 274 273 273 273 273 273 272 272 273 274 275 275 275 276 275 275 276 276 276 276 276 276 276 276 276 276 275 275 276 276 276 276 277 277 277 277 276 276 276 275 276 276 276 276 276 276 276 276 277 277 277 277 277 276 276 276 275 276 276 276 275 275 275 275 275 275 276 276 277 277 278 278 278 279 279 279 279 279 280 280
275 275 274 274 273 273 273 273 273 272 272 272 272 273 274 275 275 275 275 275 275 275 275 275 275 275 275 275 275 275 275 275 275 275 275 276 276 277 277 276 276 276 275 275 275 275 275 276 276 276 276 276 276 276 276 277 277 276 275 275 275 275 275 275 275 274 274 274 274 274 275 275 275 276 276 277 277 277 278 278 278 278 279 279 280
275 274 274 273 273 272 272 272 272 272 272 272 272 273 274 275 275 275 275 275 275 275 275 275 275 275 275 275 275 275 274 274 274 274 275 275 276 276 276 276 275 275 275 274 275 275 275 276 276 276 276 276 276 276 276 276 276 275 275 275 274 274 275 274 274 274 274 274 274 274 274 274 275 275 275 276 276 277 277 277 277 278 278 279 279
274 274 273 273 272 272 272 272 272 272 272 272 272 273 274 274 274 274 274 274 274 274 274 274 274 274 274 274 274 274 274 274 273 274 274 275 275 275 275 275 275 275 274 274 274 275 275 275 276 276 276 276 275 275 276 275 275 275 274 274 274 274 274 273 273 273 273 273 273 273 274 274 274 274 274 275 275 276 276 276 277 277 278 278 279
274 273 273 272 272 272 272 272 272 272 272 271 271 272 274 274 274 274 274 274 274 274 274 274 274 274 274 274 274 273 273 273 273 273 273 274 274 275 274 274 274 274 274 274 274 275 275 275 276 276 276 275 275 275 275 275 274 274 274 274 274 273 273 273 272 272 273 273 273 273 273 273 273 273 274 274 275 275 275 275 276 276 277 277 278
274 273 273 272 272 272 272 272 272 272 271 271 271 272 273 274 274 274 274 274 274 274 274 274 273 273 273 273 273 273 273 273 273 273 273 274 274 274 273 273 273 274 274 274 274 275 275 275 275 275 275 275 275 275 274 274 274 273 273 273 273 272 272 272 272 272 272 272 272 272 272 272 273 273 273 274 274 274 274 275 275 276 276 276 277
273 273 272 272 272 272 272 272 272 271 271 271 271 271 272 273 274 274 274 274 274 274 273 273 273 273 273 273 273 273 273 273 273 273 273 273 273 273 273 273 273 274 274 274 275 275 275 275 275 275 274 274 274 274 274 273 273 273 272 272 272 272 271 271 272 272 272 271 272 272 272 272 272 273 273 273 273 273 274 274 275 275 275 275 276
273 273 272 272 272 272 272 272 271 271 271 271 271 271 272 273 273 274 274 273 273 273 273 272 273 273 273 272 272 272 272 272 272 272 272 273 273 272 272 273 273 273 274 274 275 275 274 274 274 274 274 273 273 273 273 273 272 272 271 271 271 271 271 271 271 271 271 271 271 271 271 271 272 272 273 272 272 272 273 274 274 274 274 275 275
273 273 272 272 272 272 272 271 271 271 270 270 270 271 271 272 273 273 273 273 272 272 272 272 272 272 272 272 272 272 272 272 272 272 272 272 272 272 272 272 273 273 274 274 274 274 274 274 274 273 273 273 273 272 272 271 271 270 270 270 270 270 270 270 270 270 270 270 270 271 271 271 272 272 272 272 271 272 272 272 272 273 273 274 274
273 273 272 272 272 271 271 271 271 270 270 270 270 270 271 272 272 272 272 272 271 272 272 272 272 272 272 272 272 272 272 272 272 272 272 272 272 272 272 272 273 273 273 273 273 273 273 273 273 272 272 272 272 271 271 270 270 270 270 269 269 269 269 269 269 269 270 270 270 270 271 271 271 271 271 271 271 271 271 271 271 272 272 273 273
273 273 272 272 271 271 271 271 271 270 270 270 269 269 270 271 271 272 271 271 271 271 271 271 271 271 271 271 271 271 272 272 271 272 272 272 272 272 272 273 273 272 272 272 273 272 272 272 272 272 271 271 271 270 269 269 269 269 269 269 268 268 268 269 269 269 269 269 270 270 270 271 271 270 270 270 270 270 270 270 270 271 271 272 272
273 273 272 272 271 271 271 271 271 270 270 269 269 269 269 270 271 271 271 271 271 271 271 271 271 271 271 271 271 271 271 271 271 271 272 272 272 272 272 272 272 272 272 272 272 272 272 271 271 271 270 270 269 269 268 268 268 268 268 268 268 268 268 268 268 269 269 269 269 269 270 270 270 270 269 269 269 269 269 269 269 269 270 271 272
273 273 272 272 271 271 271 270 270 270 270 269 269 269 268 269 270 270 270 271 271 271 271 271 271 271 271 271 271 271 271 271 271 271 271 272 272 272 272 272 272 272 272 271 271 271 271 270 270 269 269 268 267 267 267 267 267 267 267 267 267 267 267 268 268 268 268 268 268 268 269 269 269 269 269 268 268 268 268 268 268 268 269 270 270
273 273 272 272 271 271 270 270 270 270 269 269 269 269 268 268 269 270 270 270 270 270 270 270 270 270 270 270 270 270 270 270 271 271 272 272 272 272 272 271 271 271 271 270 270 270 269 269 268 267 266 266 265 265 265 265 265 266 266 266 266 266 267 267 267 267 267 267 267 268 268 268 268 268 268 268 267 267 267 267 267 268 268 268 269
272 272 272 271 271 270 270 270 269 269 269 269 269 268 268 268 269 269 270 270 270 270 270 270 270 270 270 270 270 270 270 270 271 271 271 271 271 271 271 271 270 270 270 270 269 269 268 266 266 265 264 264 264 264 264 264 264 265 265 265 265 265 266 266 266 266 266 266 266 266 266 267 267 267 267 267 266 266 266 266 267 267 267 267 267
Wind_Speed
12 12 12 12 12 10 10 10 10 10 9 8 7 7 8 8 7 7 7 7 8 9 10 10 11 11 11 12 11 13 15 14 13 13 13 13 11 14 19 20 21 22 22 23 22 19 19 19 18 18 17 17 18 19 20 20 20 20 20 21 22 23 25 25 25 26 26 27 28 29 30 30 30 31 31 32 32 33 33 33 33 33 32 32 32
12 12 12 12 12 11 12 13 12 11 11 11 10 10 11 11 11 10 10 9 10 12 12 11 12 12 13 14 13 13 14 13 13 13 13 13 12 15 18 20 22 24 25 26 24 21 21 21 21 20 19 18 19 20 20 21 21 21 20 20 21 21 22 23 24 25 25 26 26 27 28 29 30 31 31 31 32 32 33 33 33 33 33 33 33
16 15 14 14 14 14 16 16 15 13 12 13 12 13 14 13 14 14 13 11 11 13 13 12 13 13 14 15 15 13 12 12 12 13 13 14 14 15 16 18 22 26 27 28 27 26 26 24 23 23 21 20 20 20 20 21 22 22 22 21 21 21 21 21 22 23 25 25 26 26 27 28 29 30 31 31 32 32 32 33 33 33 33 33 33
19 18 16 16 16 16 17 17 17 15 13 13 14 15 15 14 15 16 14 13 14 14 14 15 15 15 16 16 15 13 12 12 12 12 14 15 14 15 15 16 19 24 26 27 27 27 27 26 25 24 24 23 23 23 23 23 23 23 22 22 22 22 22 22 22 22 23 24 25 26 28 29 29 30 31 31 32 32 32 33 33 33 33 34 34
19 18 17 16 17 17 18 18 18 16 14 14 15 15 16 15 15 15 15 15 16 16 16 17 17 17 17 16 14 12 12 11 10 12 15 15 13 14 15 16 18 21 23 24 26 26 25 25 25 25 25 25 25 26 26 26 26 25 23 23 23 22 22 23 23 23 23 23 24 25 26 27 29 30 31 31 32 33 33 33 33 33 34 34 34
19 18 18 18 18 19 19 19 19 17 16 15 16 16 16 17 16 16 16 16 17 17 18 19 18 18 18 16 13 12 11 10 9 12 16 14 13 15 14 18 20 20 21 22 25 27 25 24 24 24 24 25 26 27 28 28 28 28 26 25 25 25 25 25 25 25 25 24 24 24 24 25 26 28 29 30 31 32 32 33 33 33 34 34 34
21 19 19 20 20 21 20 19 19 18 17 17 17 17 18 18 17 17 17 17 18 19 20 20 20 19 18 15 12 12 9 9 11 14 17 14 14 14 14 21 22 19 22 23 25 27 26 25 25 25 25 25 26 27 28 28 29 30 29 28 27 27 28 28 27 27 27 26 26 25 25 25 25 26 27 28 29 30 31 32 33 33 34 34 33
22 20 20 21 21 21 20 20 19 19 19 18 18 18 18 18 18 18 18 19 20 22 21 20 20 19 17 14 11 10 7 8 12 17 18 15 14 13 16 24 21 18 25 26 26 24 22 26 26 26 27 27 27 27 28 28 28 29 28 28 28 28 28 29 29 29 28 28 28 28 27 27 26 26 27 27 28 29 29 30 31 32 33 33 33
21 20 20 21 21 21 20 20 20 20 20 20 19 19 20 19 18 19 19 20 21 23 22 20 20 18 15 14 11 7 5 7 13 19 17 14 14 12 18 24 17 19 28 29 25 19 22 29 28 28 29 28 26 26 27 26 25 26 27 28 28 28 29 29 30 32 32 32 31 30 29 29 28 28 28 28 29 29 29 30 30 31 31 31 32
21 20 21 21 21 21 21 21 20 20 21 22 21 21 21 20 18 17 18 20 22 23 23 21 20 18 13 12 10 5 4 6 14 21 16 14 14 13 21 21 14 22 31 28 20 18 26 30 27 30 31 27 25 26 25 22 23 26 28 29 29 29 30 30 30 31 33 34 33 33 32 30 29 29 28 29 29 30 30 31 31 31 31 31 31
20 20 21 22 22 21 21 22 22 22 23 23 23 23 21 19 19 18 15 17 22 23 22 21 20 17 11 10 8 5 4 5 16 23 14 14 14 13 22 19 14 25 32 25 16 20 28 25 25 31 30 26 25 26 22 19 22 26 27 29 30 30 30 30 31 31 32 34 35 35 34 32 31 29 29 29 29 30 30 31 32 32 33 33 32
21 21 22 23 23 22 22 23 23 23 24 24 23 23 22 19 17 17 16 15 22 26 25 19 17 16 9 7 7 4 4 4 16 24 13 14 15 13 22 17 16 30 31 20 16 24 26 22 26 29 26 24 24 22 18 18 22 24 26 28 30 31 31 31 31 31 33 34 34 35 35 34 33 32 31 31 31 31 30 31 32 32 33 34 34
22 22 23 24 24 23 23 24 24 24 24 24 24 23 23 21 15 15 15 15 19 26 28 19 14 16 9 7 6 3 3 3 17 25 12 13 15 14 21 16 21 35 27 16 20 27 24 22 28 27 24 23 20 18 18 20 22 24 25 27 29 32 32 32 32 33 33 34 34 35 35 36 35 35 34 33 32 32 33 32 32 32 33 34 35
23 22 23 24 24 24 24 24 24 24 24 24 25 25 25 24 18 14 14 15 16 21 28 21 13 16 11 9 6 3 1 3 20 26 11 13 14 14 20 15 26 36 21 16 25 27 23 24 28 25 23 22 18 19 20 22 25 25 26 27 30 32 33 33 33 34 35 35 35 35 36 37 37 37 36 35 34 34 34 34 34 34 33 34 35
25 23 24 25 25 25 25 25 25 25 25 25 26 26 26 25 22 18 13 13 15 18 25 24 17 15 9 6 5 5 1 1 23 26 10 13 13 15 19 15 28 32 17 20 28 26 24 26 26 23 23 20 18 20 19 22 27 28 29 30 32 34 35 35 35 36 36 36 37 36 36 36 37 38 37 37 36 36 36 35 35 35 35 34 34
27 26 26 26 26 26 25 25 25 25 25 24 24 24 24 24 22 20 17 13 13 15 19 23 22 16 8 5 4 6 3 6 23 19 9 13 11 15 18 16 30 27 15 22 25 24 24 24 22 22 21 19 20 21 19 23 30 32 33 34 36 37 37 37 37 37 37 37 37 36 36 36 37 38 38 38 38 39 39 37 36 35 36 36 36
27 27 26 26 27 27 26 25 25 26 25 23 22 22 23 23 21 19 18 15 12 12 14 17 21 20 12 6 4 4 4 11 17 9 10 14 9 14 15 16 28 22 16 22 22 24 24 21 21 20 19 20 21 20 19 25 30 33 37 38 39 39 38 38 38 38 38 38 37 37 37 37 37 38 38 39 39 40 40 39 38 37 37 38 39
27 27 26 26 26 27 26 25 24 25 24 22 21 21 22 23 21 17 16 15 11 11 13 13 14 17 15 10 5 4 6 12 10 6 13 12 9 15 13 15 23 16 15 20 19 23 22 19 21 19 18 22 22 19 19 25 27 29 34 39 42 41 40 39 38 38 38 37 37 37 38 38 38 38 38 39 39 40 40 39 39 39 38 39 40
27 27 26 26 26 26 26 24 23 23 23 23 22 21 21 22 21 17 15 15 13 11 13 12 11 12 13 9 6 5 6 8 6 7 11 9 14 18 14 18 21 15 16 18 18 21 18 18 20 17 18 23 22 19 20 25 27 25 28 37 43 41 41 40 38 38 37 37 37 37 38 38 39 39 38 39 39 39 39 39 39 39 39 39 39
26 26 26 26 26 26 26 24 24 24 23 24 23 21 21 21 21 19 15 14 14 12 11 12 11 11 11 8 7 6 5 5 4 6 7 8 14 15 16 22 19 15 17 18 20 20 17 19 19 15 19 22 19 18 21 25 27 25 27 38 43 41 40 38 37 37 36 36 36 36 38 38 39 39 39 39 39 39 39 38 39 39 39 39 39
25 25 25 25 25 24 24 24 23 23 23 23 22 21 21 21 20 19 16 14 13 12 11 11 10 10 10 9 8 8 6 5 5 8 8 8 9 10 18 24 18 17 18 18 20 18 16 19 16 15 20 21 18 18 21 24 25 24 27 37 42 42 42 38 36 36 35 35 35 36 38 38 39 39 39 39 39 39 39 38 39 39 39 39 40
23 23 23 23 23 23 23 23 22 22 22 21 21 20 19 19 18 18 17 14 12 12 11 10 9 9 10 9 9 10 8 7 8 10 10 9 9 10 16 19 17 18 19 19 20 17 17 19 15 17 20 19 18 20 23 25 25 25 28 32 36 39 39 37 37 37 35 35 35 36 37 38 39 38 38 38 39 39 39 39 39 39 40 40 40
22 21 22 22 22 21 22 22 21 21 21 20 20 19 17 16 17 16 16 15 13 11 10 10 10 9 10 9 9 10 9 9 10 11 11 10 10 11 15 17 16 18 18 18 18 16 18 17 14 19 21 19 20 21 24 27 25 28 32 33 35 38 35 33 35 35 34 36 36 36 37 38 38 38 37 38 38 39 38 38 39 40 40 40 40
20 20 20 21 20 20 20 20 20 19 19 18 17 17 17 16 16 15 15 14 13 11 10 11 10 9 9 9 8 9 8 9 10 11 12 12 12 12 15 17 15 15 17 17 15 15 16 13 13 18 20 19 20 23 27 28 28 30 32 35 40 39 34 32 33 33 34 36 36 37 38 38 37 37 37 37 38 38 38 39 39 40 40 40 40
18 19 19 19 19 19 18 18 18 17 17 17 16 17 16 15 15 15 14 13 13 11 10 10 9 9 9 9 8 8 8 8 10 11 11 13 13 13 15 16 15 16 17 15 15 15 13 11 15 19 18 18 20 24 27 28 29 30 32 37 40 36 32 34 33 33 35 36 36 37 37 38 37 36 36 36 37 38 38 39 40 40 40 40 41
17 17 17 17 17 16 16 16 16 16 16 15 16 16 15 14 13 13 12 11 11 9 9 9 9 9 9 9 9 8 8 9 10 10 11 12 13 14 16 16 16 17 16 15 15 15 12 12 16 19 18 19 21 24 25 25 25 28 33 36 34 31 32 33 33 35 37 37 37 37 36 36 36 36 36 36 37 38 39 39 39 40 40 40 41
16 15 15 15 15 15 15 15 15 15 15 14 14 13 12 12 11 11 11 11 11 9 8 9 10 10 9 9 9 8 8 9 9 10 11 12 12 15 16 14 13 13 14 15 14 13 14 17 17 17 18 21 23 24 23 24 23 24 29 30 29 30 32 32 34 38 37 36 37 36 35 35 35 36 37 38 39 39 39 40 40 41 40 40 40
14 14 14 14 14 14 14 14 14 14 13 12 12 11 11 11 11 11 11 11 11 9 8 9 9 9 9 9 9 8 8 9 10 10 11 11 12 14 14 13 12 11 11 12 11 11 16 20 18 17 20 22 23 23 22 23 25 24 25 26 26 28 28 30 36 39 38 36 36 35 35 35 35 36 36 38 38 39 40 42 42 41 40 40 40
13 13 13 13 13 13 12 12 12 11 11 10 10 11 11 10 10 11 10 10 9 8 8 8 9 9 9 9 9 8 8 9 10 11 11 11 11 11 12 13 13 11 10 11 11 12 16 21 20 19 22 24 23 22 23 24 24 25 26 26 25 24 26 29 34 37 38 36 35 35 35 35 35 36 36 38 39 42 43 44 43 41 40 40 39
12 12 12 12 11 11 11 10 10 10 10 10 10 11 10 9 8 9 9 9 8 7 7 8 9 9 9 10 9 8 9 10 11 11 11 11 11 10 11 13 14 12 12 12 13 15 18 22 23 20 22 26 25 24 25 25 25 26 27 27 26 25 27 29 29 31 34 35 35 35 34 35 36 37 39 41 42 44 44 43 42 41 40 40 39
11 11 11 10 10 10 10 9 9 9 10 10 11 11 10 9 9 8 9 10 9 8 8 8 9 9 10 10 10 9 10 11 11 11 11 11 10 11 12 14 14 14 15 14 13 17 20 22 26 24 22 25 27 25 25 25 26 27 26 27 27 28 29 28 27 28 29 31 33 35 35 37 39 41 44 44 43 43 42 41 40 40 40 40 41
10 10 10 9 9 9 9 9 9 10 10 10 11 11 10 10 10 9 9 9 8 8 8 9 9 9 9 10 10 10 10 11 11 11 12 11 10 11 13 14 14 13 15 16 15 20 24 22 25 29 25 25 27 27 25 25 26 27 27 27 27 28 29 29 28 27 25 26 29 33 37 40 44 46 46 45 43 41 39 38 39 41 42 42 42
9 9 9 8 8 8 8 9 9 10 10 10 11 12 12 11 10 8 8 8 8 8 8 9 9 9 9 10 10 11 11 11 12 12 12 12 11 13 14 14 14 13 15 17 18 23 27 25 25 28 28 26 27 27 26 26 26 27 27 26 26 27 30 31 30 28 25 25 27 32 38 43 47 48 46 43 40 38 38 38 38 39 40 41 41
8 8 8 7 8 8 9 9 9 9 10 11 11 12 12 11 9 7 7 8 8 9 9 10 10 10 10 11 11 11 11 11 12 13 13 13 12 13 14 14 15 16 16 19 21 23 26 28 27 28 28 27 27 27 27 28 28 27 26 25 26 28 30 31 30 27 26 28 31 34 38 43 46 47 45 42 39 37 38 38 38 38 38 38 39
7 7 7 7 7 8 8 9 9 10 10 10 11 11 11 9 8 7 7 8 8 9 10 10 11 11 11 12 12 12 12 12 13 13 12 13 13 14 15 15 16 18 18 19 20 22 26 28 28 28 28 27 27 27 28 28 28 27 25 26 27 29 30 30 28 27 29 32 35 37 39 42 42 41 40 40 39 39 38 38 38 39 38 38 38
6 6 6 6 6 7 8 8 9 9 10 10 10 10 9 8 7 7 8 8 9 10 10 11 11 12 12 12 12 12 13 13 14 13 12 13 15 15 16 16 16 18 19 19 20 22 25 27 29 29 28 28 28 28 28 29 28 26 26 28 29 29 29 28 27 28 31 34 35 37 40 39 37 37 38 39 40 40 39 39 39 39 39 39 38
4 5 5 5 6 7 7 7 8 9 10 11 11 10 8 7 6 7 7 9 9 10 10 10 11 11 11 12 12 12 13 14 14 13 13 15 16 16 16 17 17 19 19 20 21 22 24 27 29 29 28 29 29 28 28 28 29 28 28 29 30 29 28 28 29 29 31 34 35 35 36 35 36 37 38 38 39 40 39 39 40 39 39 38 37
3 4 4 5 5 5 6 7 9 10 10 11 11 10 7 7 7 7 8 8 9 9 9 10 10 11 11 12 12 12 13 14 14 14 15 16 17 17 17 18 18 19 20 21 21 22 24 26 27 29 29 28 28 29 28 27 28 31 31 30 31 30 28 28 30 30 32 35 34 32 32 34 36 37 39 40 40 39 39 39 40 40 38 37 35
3 3 4 4 4 5 6 8 9 10 11 11 10 8 7 7 7 8 9 8 9 9 9 10 10 11 11 12 12 13 13 13 14 15 17 17 17 17 17 18 19 20 21 22 22 23 24 25 26 27 28 27 28 29 28 28 29 30 29 30 33 32 29 30 32 34 36 36 34 31 31 32 34 37 39 40 39 37 38 38 38 38 36 33 32
3 3 4 4 4 5 7 9 10 10 11 11 9 8 7 8 8 9 9 9 9 10 10 10 11 11 11 12 12 12 12 14 15 17 17 17 17 18 18 18 19 20 21 22 23 23 24 25 26 26 27 28 27 27 28 28 29 30 30 31 32 32 32 34 37 36 36 36 33 32 32 31 33 37 36 36 38 37 36 37 36 34 31 29 32
3 4 4 4 5 5 7 9 10 10 10 10 9 8 8 9 9 9 9 9 10 10 10 11 11 11 12 12 11 12 13 15 16 17 17 16 17 18 19 20 20 21 22 23 23 24 25 25 25 25 26 27 27 27 27 27 29 32 34 33 30 31 34 38 42 37 31 32 33 33 34 33 33 37 34 32 36 37 36 36 33 29 29 32 37
3 4 4 4 5 6 7 8 9 10 10 9 8 8 8 10 10 9 10 10 10 9 11 12 12 12 12 12 12 13 14 15 16 16 16 17 17 19 20 21 21 22 23 24 25 25 25 25 26 26 26 27 27 26 26 29 32 33 32 30 29 33 36 36 40 38 30 28 31 34 38 36 32 34 33 30 33 36 36 35 31 30 33 38 41
3 3 4 4 5 6 7 8 9 10 9 9 8 8 9 10 10 10 11 10 9 10 10 11 12 12 12 12 13 13 14 15 16 17 18 18 18 19 21 21 22 23 24 26 26 25 25 26 27 27 27 27 27 27 28 31 32 29 28 29 31 34 34 30 32 36 33 30 31 34 40 40 33 31 31 28 31 35 34 34 34 35 38 40 41
3 3 4 5 6 7 8 9 9 9 9 9 9 8 10 11 11 11 11 9 9 10 10 11 12 12 12 13 13 13 14 15 17 18 19 19 19 20 22 23 24 24 24 25 26 26 27 27 27 27 26 27 28 30 29 28 29 29 31 33 32 32 34 32 31 36 37 35 33 33 38 39 33 30 30 28 30 34 33 34 38 40 40 41 41
3 4 5 5 6 7 8 9 9 9 10 10 9 9 10 11 11 12 10 8 9 10 11 11 12 12 13 13 14 14 14 16 18 18 19 20 21 22 23 24 24 24 24 25 26 27 27 25 24 25 27 29 29 28 26 26 31 34 35 35 34 32 34 35 35 39 40 36 32 32 35 37 33 30 30 29 30 33 33 35 39 42 42 42 42
4 4 5 6 6 7 8 9 10 10 10 10 10 9 10 11 12 12 9 8 9 11 11 12 12 13 14 14 15 15 16 17 18 18 20 22 23 24 25 25 25 25 25 26 25 25 24 22 24 27 28 27 25 24 27 31 34 36 35 36 37 36 36 38 38 40 37 32 30 29 30 32 31 29 32 32 31 33 33 35 38 40 43 44 43
5 5 5 6 6 7 8 9 10 11 11 11 10 9 10 11 12 11 8 7 9 11 11 12 13 14 14 14 15 17 18 18 19 20 22 23 25 27 27 26 27 27 26 26 24 23 23 23 25 27 25 23 23 27 32 35 35 35 35 37 37 36 37 38 37 35 31 29 28 25 25 29 30 30 33 34 34 35 35 34 34 37 43 45 42
6 6 6 7 7 8 9 10 10 11 11 11 11 10 10 11 11 10 8 8 10 12 12 13 14 14 14 14 16 17 19 20 21 21 23 25 27 28 27 28 29 28 25 24 23 23 24 25 25 25 26 28 32 36 38 38 37 36 36 36 34 32 32 32 31 31 29 26 25 23 26 30 30 30 33 35 36 36 35 34 34 36 39 39 39
7 7 7 7 8 8 9 10 11 12 12 12 11 11 11 11 11 10 8 9 11 12 12 14 14 14 14 15 16 19 20 21 22 22 24 26 27 27 30 30 27 24 22 22 23 23 24 24 24 27 31 35 38 40 40 38 37 34 32 32 30 28 27 24 23 27 29 27 24 23 26 30 29 29 33 36 37 35 33 33 34 32 33 36 40
9 8 8 8 9 9 9 10 11 12 13 13 12 12 12 11 11 10 9 9 10 12 13 14 14 14 15 16 17 18 20 22 23 24 25 26 27 29 30 26 21 20 21 24 26 24 20 20 22 27 32 34 35 36 36 35 33 29 27 28 28 27 26 22 21 26 29 28 24 21 24 29 28 28 31 33 35 35 31 28 29 29 30 35 40
10 9 8 8 9 10 10 11 11 12 13 13 13 13 12 11 10 10 10 10 11 12 13 14 15 15 15 17 17 18 20 22 23 24 25 26 28 28 24 20 18 21 25 28 28 23 20 23 27 29 31 32 31 30 30 29 27 24 23 25 25 25 25 25 25 23 20 22 22 21 24 29 28 27 27 24 23 27 27 24 26 29 31 33 38
Wind_Direction
96 92 88 86 79 72 65 58 55 56 57 54 53 53 46 44 42 34 27 20 12 6 3 360 359 358 356 356 351 352 356 354 355 358 357 357 352 2 23 31 29 28 26 27 20 5 2 2 359 355 350 346 344 342 340 339 335 329 323 317 313 308 300 295 293 292 290 288 287 286 286 286 285 285 283 282 281 280 279 278 276 275 274 274 274
95 90 88 89 87 85 83 79 73 70 72 70 67 63 57 54 52 49 39 28 20 18 17 10 7 8 8 7 1 356 357 358 0 4 3 3 0 6 19 28 30 32 32 32 26 15 12 9 8 9 3 355 350 349 347 345 344 341 335 329 325 320 311 303 299 297 294 292 290 288 288 288 287 286 285 284 283 282 280 279 278 277 275 274 273
100 97 97 97 96 92 84 79 74 70 69 68 66 63 61 58 56 54 44 33 29 27 26 20 15 16 17 16 13 7 1 3 9 11 9 7 8 11 14 17 25 32 35 34 31 27 23 19 17 16 12 6 359 356 354 353 352 351 348 343 339 334 328 320 313 307 302 300 297 294 292 290 289 288 286 285 285 284 283 281 279 277 276 274 273
100 97 97 95 92 86 79 76 72 68 67 68 67 65 62 60 58 54 45 37 33 30 30 25 21 22 22 23 23 17 10 13 18 18 16 13 14 18 19 19 20 26 29 27 26 26 24 23 22 20 18 14 9 5 2 1 358 355 351 349 346 343 340 335 329 321 314 308 305 301 298 295 294 292 291 289 288 286 285 283 281 279 277 276 275
99 96 92 88 85 81 77 74 70 68 66 66 64 62 59 56 56 50 41 36 31 27 29 27 25 25 24 27 26 21 20 24 26 23 20 19 22 24 24 23 17 18 21 17 15 16 17 18 20 19 18 16 14 12 8 7 4 359 355 353 353 350 347 345 341 336 330 321 315 310 305 301 298 296 293 292 290 289 287 286 284 282 280 278 277
97 95 91 86 81 76 74 70 70 68 64 63 60 58 55 51 51 46 38 34 30 26 26 26 26 27 27 31 28 25 28 31 33 26 24 26 26 28 28 20 16 16 16 11 7 8 9 9 11 11 11 11 10 9 7 6 4 2 359 356 354 354 352 350 347 343 340 334 327 321 315 310 305 301 298 295 292 290 288 287 286 284 283 280 278
93 93 89 84 78 74 72 68 68 66 63 62 59 57 55 49 47 45 36 30 28 25 23 22 23 26 29 33 34 35 39 41 41 28 26 31 28 32 29 17 19 18 12 8 5 6 6 4 6 5 4 4 3 3 4 4 3 1 358 354 352 352 351 351 348 345 341 338 334 329 324 320 316 311 305 301 298 295 292 290 287 285 284 282 280
90 89 86 82 77 73 70 68 66 63 62 60 59 58 56 51 45 43 33 25 23 21 19 15 18 24 28 34 38 40 48 52 40 25 24 31 32 37 20 14 21 15 8 7 7 9 5 1 4 4 1 1 0 1 5 6 6 4 1 360 357 354 352 352 350 347 343 339 335 331 326 323 321 318 313 308 303 299 296 294 292 290 288 286 284
90 88 86 81 76 72 68 67 64 63 62 59 58 58 55 50 43 40 34 25 20 17 14 10 12 18 22 32 39 41 59 60 30 18 23 31 35 35 13 15 22 6 6 11 14 13 0 360 6 3 3 4 2 8 12 9 10 12 10 7 4 360 357 354 352 350 349 347 343 339 333 326 321 318 315 313 308 304 300 297 295 293 291 289 287
90 88 85 79 75 71 68 67 63 61 60 57 56 54 54 49 39 37 31 25 22 15 9 7 8 7 10 25 35 44 67 67 25 15 25 33 34 28 12 17 22 3 7 15 19 10 359 3 6 2 6 9 10 18 18 10 12 16 14 10 7 3 1 358 354 351 351 351 352 351 347 342 335 326 319 315 311 307 304 300 297 293 291 288 287
89 87 84 78 74 70 67 66 62 59 57 54 51 49 49 44 38 36 28 24 25 18 8 6 3 354 352 9 23 44 70 69 21 16 29 33 28 22 13 19 17 3 8 19 18 3 2 5 3 4 10 12 16 21 14 5 9 11 11 10 7 4 2 359 356 353 350 351 353 352 350 350 348 342 334 326 319 313 308 304 301 296 292 289 287
86 85 82 76 71 67 66 65 61 57 54 52 48 45 44 39 34 30 24 22 24 22 16 7 354 347 343 356 8 33 71 80 16 16 33 29 24 19 14 19 9 3 9 20 10 360 3 3 2 8 12 10 15 15 359 355 2 2 3 5 5 3 0 358 356 354 351 350 350 348 347 347 347 347 343 337 332 326 318 312 307 303 299 295 291
82 82 80 76 71 67 66 64 61 58 54 54 50 47 45 41 34 25 27 24 21 21 17 12 357 354 348 341 354 20 75 96 7 12 31 20 22 18 13 19 3 3 12 16 2 1 3 1 4 12 11 5 7 2 352 353 355 354 355 356 359 1 358 356 354 351 350 349 348 346 345 344 344 344 343 340 338 335 331 325 317 310 305 301 298
78 79 79 76 71 66 64 62 62 59 55 55 52 50 47 44 38 27 28 27 26 21 17 22 7 348 335 326 351 9 132 135 360 4 21 14 19 17 13 16 0 4 15 7 1 3 2 1 7 10 4 1 3 1 1 359 352 348 348 348 353 356 355 353 351 349 347 346 345 343 343 342 341 341 340 339 337 335 335 333 328 321 313 307 303
76 75 75 75 72 66 62 60 60 58 55 52 50 49 46 45 41 31 28 28 31 26 23 30 12 346 335 330 353 348 275 107 352 352 9 11 14 14 12 11 360 5 15 0 1 3 359 2 7 3 358 1 4 3 4 358 349 344 344 345 349 351 351 350 348 347 345 344 343 341 339 339 338 338 337 336 334 333 333 332 332 329 324 317 310
75 72 72 73 72 67 64 60 59 58 55 51 48 46 44 45 43 35 33 29 28 27 27 32 26 15 3 326 324 340 339 344 339 338 0 4 8 10 7 4 359 4 10 359 1 1 357 0 1 358 359 2 3 3 3 355 348 344 344 345 347 348 348 347 345 344 343 342 341 339 338 336 335 334 334 333 332 332 331 330 329 328 328 325 320
75 72 71 71 71 69 66 61 59 58 56 53 49 47 46 46 44 37 34 31 26 28 27 30 35 37 29 2 341 346 345 334 329 323 345 350 0 3 4 4 359 1 1 357 359 359 357 358 357 357 1 2 0 1 360 354 349 346 344 344 346 346 346 344 343 342 341 340 339 338 338 336 334 332 332 332 331 331 330 329 327 326 328 327 325
75 73 71 70 70 69 67 63 60 58 57 55 52 48 47 47 44 39 35 33 30 32 29 26 34 39 38 39 31 358 326 328 330 321 329 336 349 350 357 3 357 358 357 355 357 356 357 357 355 357 0 357 355 356 357 354 351 349 346 345 347 346 345 344 342 341 340 338 337 337 336 335 334 333 332 331 330 330 329 328 327 325 325 325 326
74 73 71 69 68 68 67 64 61 59 57 56 54 49 48 48 47 44 37 34 35 35 29 23 27 31 31 35 29 5 331 330 342 331 323 325 333 336 345 352 352 355 354 354 354 352 355 355 352 356 357 352 348 349 351 350 348 347 346 346 348 348 346 344 343 341 339 338 337 337 336 335 333 332 331 331 329 328 327 327 325 324 322 321 323
73 72 70 68 67 66 66 65 62 60 58 57 56 53 51 50 48 46 41 36 36 35 28 25 25 19 16 19 14 3 349 343 345 334 321 310 322 331 335 339 346 351 349 351 351 349 352 351 350 354 353 349 348 347 347 345 344 344 341 342 345 347 345 343 342 341 339 338 337 337 336 335 333 332 330 330 328 327 326 325 323 321 320 318 319
71 70 68 66 66 65 64 63 62 59 58 57 56 54 51 49 47 45 41 37 35 35 30 25 23 15 9 8 6 3 0 358 349 339 326 310 317 328 330 332 338 344 345 346 346 347 348 347 348 351 349 348 348 346 345 343 342 341 338 339 342 344 343 341 340 339 338 337 336 335 335 334 333 331 329 329 327 326 325 324 321 319 318 317 317
69 67 66 65 63 62 62 60 59 58 56 55 53 52 48 45 45 42 41 39 33 32 30 23 20 15 9 5 5 5 359 356 352 344 332 316 312 316 325 330 330 333 339 341 339 342 344 343 345 346 346 346 345 344 342 340 339 337 336 337 340 341 340 339 338 338 336 336 335 333 333 333 332 330 328 327 326 325 324 322 320 318 316 316 316
68 65 64 64 61 59 59 58 56 55 53 52 50 50 46 43 42 41 40 38 32 27 25 21 16 11 10 9 6 3 357 353 348 343 337 327 319 317 323 327 321 321 330 333 333 336 337 338 342 343 343 342 342 342 340 338 336 333 333 334 335 336 336 335 336 336 335 335 333 332 332 331 330 328 326 325 324 323 322 321 319 317 315 315 314
67 64 61 61 59 57 56 55 54 52 51 50 48 47 47 43 39 38 34 31 29 27 20 17 15 8 5 4 2 0 355 353 347 341 337 330 324 319 322 326 319 316 323 326 326 330 332 334 339 339 338 337 338 338 336 335 332 331 331 329 331 334 335 334 334 334 333 333 331 331 331 330 328 326 324 323 322 321 320 319 317 316 315 314 313
66 63 60 58 57 54 52 51 51 49 47 46 44 42 42 39 34 34 33 26 27 29 18 13 13 6 2 358 358 357 353 351 346 340 336 331 328 322 322 324 318 315 320 323 324 325 327 334 336 334 332 334 335 334 332 330 329 329 326 325 328 332 334 333 332 332 331 330 329 329 329 328 327 325 323 322 321 320 319 318 316 316 315 313 312
68 64 60 56 53 50 48 46 44 43 41 38 38 36 36 36 31 31 32 24 23 23 12 10 11 5 4 358 353 352 350 350 345 341 339 335 333 329 327 324 317 315 318 321 323 322 323 330 332 329 328 331 332 330 328 325 327 325 321 323 328 330 330 330 330 329 329 328 328 328 327 327 326 325 324 323 322 320 319 317 316 315 314 312 311
69 63 57 52 49 45 43 40 38 37 34 32 33 31 32 34 30 28 25 19 19 16 4 4 4 1 1 356 350 349 350 348 345 343 340 335 334 333 333 330 323 320 320 320 320 320 322 325 328 329 328 329 330 328 326 324 324 323 322 324 326 325 326 327 327 327 327 326 327 327 327 327 326 326 324 323 323 322 320 319 317 314 312 311 310
66 59 53 47 44 41 38 36 34 32 30 30 31 30 33 35 30 25 20 13 12 9 2 358 356 355 356 353 350 347 349 348 343 341 338 335 334 334 337 337 330 324 323 320 318 322 325 325 326 329 328 328 328 327 326 323 322 324 324 323 321 320 323 324 324 327 326 324 326 327 327 327 326 325 325 324 323 322 321 319 317 315 313 311 310
64 56 50 44 39 38 36 34 33 32 32 33 33 34 36 31 23 20 14 9 5 1 358 354 351 351 352 353 353 349 349 347 342 340 337 334 333 332 334 334 329 323 319 317 315 319 325 324 324 327 327 326 328 327 324 321 320 323 323 320 319 318 319 320 322 324 324 323 324 326 326 326 326 326 326 325 322 321 320 319 318 316 314 313 312
59 52 47 42 38 37 38 38 36 36 37 37 36 38 35 26 18 14 12 13 7 355 352 352 351 352 351 353 354 351 349 345 340 338 336 333 330 327 325 326 325 318 312 310 307 312 322 322 319 322 325 323 323 324 321 318 318 321 320 318 317 316 316 317 317 318 320 320 322 324 325 326 326 325 325 323 321 321 320 319 317 315 314 313 313
56 51 45 42 39 40 42 42 41 40 40 39 37 36 34 27 21 13 11 14 5 350 351 351 348 349 349 350 352 350 347 342 338 337 335 332 327 322 319 319 319 314 308 305 299 306 317 319 315 317 320 319 318 319 318 316 316 319 319 316 315 315 315 315 315 315 316 318 320 322 323 324 324 324 323 322 320 320 319 317 316 316 315 315 315
54 49 46 43 41 42 44 44 43 41 39 37 35 34 30 25 22 15 7 4 354 345 347 347 347 347 345 346 347 345 343 340 338 336 333 330 323 318 317 317 317 314 309 305 298 301 309 312 311 312 315 317 315 315 316 315 314 316 316 313 313 315 315 315 316 315 315 316 318 319 320 321 322 322 322 320 319 318 318 317 317 317 316 315 314
53 48 44 42 41 42 44 44 42 39 36 33 31 30 28 23 20 11 358 353 348 344 343 344 347 347 344 342 342 342 342 339 335 334 330 326 321 317 317 317 315 315 313 309 303 300 304 308 308 308 312 316 315 314 315 314 314 314 313 311 311 313 314 314 314 314 314 315 316 316 317 319 320 320 320 319 318 317 317 317 317 316 315 313 312
48 45 41 40 41 43 44 44 42 37 33 31 29 28 26 21 11 360 353 350 346 343 343 344 346 345 342 340 340 340 339 334 329 328 325 323 320 317 317 315 311 311 313 311 306 301 302 306 308 308 311 314 313 313 314 314 313 312 311 310 311 312 313 312 311 311 313 314 314 314 315 317 318 317 317 317 316 316 316 316 316 315 312 311 311
44 41 39 39 41 43 44 42 39 35 31 29 26 25 24 18 6 353 349 347 343 343 343 343 343 342 340 337 336 336 332 328 324 323 323 323 321 317 314 311 308 308 310 308 304 301 301 303 305 308 310 311 311 311 312 311 311 311 310 311 310 310 311 309 307 309 311 312 312 313 315 316 315 314 313 313 314 315 315 315 314 313 311 310 310
41 37 35 38 40 42 42 39 37 34 30 27 25 24 22 14 0 349 346 345 342 341 339 339 339 337 336 332 328 328 325 323 323 322 323 324 322 317 312 308 307 307 307 306 302 300 299 299 302 305 307 308 308 309 312 311 309 309 311 311 309 310 311 307 305 308 310 310 311 314 315 314 313 312 311 310 311 313 314 313 311 311 310 310 310
36 34 34 36 41 42 39 37 36 31 27 25 25 23 18 9 358 348 345 341 337 336 334 334 332 329 327 323 319 322 323 323 323 322 323 323 320 315 311 308 308 307 306 305 302 299 297 296 299 303 304 306 306 309 312 312 310 311 312 311 309 312 312 307 304 308 310 310 311 314 315 313 311 310 308 309 310 311 311 310 309 310 310 310 310
31 33 35 38 43 43 38 34 33 30 27 24 23 22 14 3 355 345 340 337 333 332 328 325 323 319 317 317 317 320 322 323 322 320 320 319 317 314 311 308 307 307 306 305 303 300 297 296 298 301 303 304 306 309 312 312 311 312 314 313 311 313 313 308 306 310 312 311 312 314 314 311 309 307 307 309 309 308 307 307 307 308 308 308 309
33 34 38 43 40 35 33 32 30 27 24 22 22 21 7 356 350 340 336 334 329 326 320 316 315 314 313 314 315 317 319 320 320 318 317 316 315 313 311 309 308 307 307 306 304 301 299 298 298 299 301 303 305 308 310 311 309 310 314 315 313 314 314 310 308 310 313 312 312 313 311 308 306 305 305 308 308 306 305 305 306 307 307 308 310
29 30 31 36 35 27 26 26 25 22 21 22 23 15 359 351 344 334 330 326 323 319 314 311 311 312 312 311 310 310 312 314 315 314 313 313 313 312 310 309 307 305 305 305 304 302 300 299 299 300 302 303 306 307 309 311 311 311 314 314 312 312 314 311 308 309 312 312 313 313 310 307 306 305 305 306 306 304 304 305 306 306 307 309 311
19 20 21 25 26 21 19 18 17 20 21 19 18 11 358 347 339 331 324 319 317 313 311 311 311 310 310 308 304 302 303 305 307 308 308 308 309 309 310 310 306 303 302 302 302 302 301 300 300 302 303 304 306 308 309 312 312 311 313 313 311 311 313 310 305 307 311 312 313 312 307 306 306 304 304 305 303 304 306 306 306 306 307 310 312
6 9 10 15 16 11 11 11 13 19 20 13 11 10 358 345 338 330 321 315 312 310 310 311 309 308 307 304 301 299 299 302 303 305 306 304 304 306 307 307 304 301 300 299 300 300 300 300 300 303 304 303 305 308 308 309 310 311 313 314 313 313 313 310 304 305 310 312 313 310 304 303 304 302 302 302 300 302 305 304 304 305 307 310 311
352 357 357 0 4 0 2 5 8 15 15 5 3 6 356 345 338 329 319 313 308 305 306 305 304 304 304 303 303 300 300 304 304 305 304 301 300 304 305 304 300 297 296 296 297 298 299 300 300 301 303 303 306 307 307 309 312 314 316 316 314 313 311 308 304 304 309 315 314 307 301 301 302 300 299 300 299 300 301 300 302 305 306 309 310
331 343 343 344 350 353 356 359 359 4 5 359 360 1 349 340 337 329 317 308 304 302 303 302 301 302 303 303 305 302 301 304 304 304 303 300 299 301 303 303 300 296 294 294 296 298 299 299 298 299 302 305 305 305 309 316 319 319 317 313 312 310 305 302 299 299 305 312 311 303 297 298 302 299 296 297 298 297 297 298 301 305 306 308 309
315 326 330 335 341 345 348 350 348 352 355 354 356 356 344 335 335 329 314 303 301 299 300 302 300 302 304 304 305 303 303 305 306 305 304 303 302 303 304 303 301 298 297 296 296 295 295 295 296 299 303 304 303 306 316 325 323 318 315 311 309 306 301 298 295 296 301 306 304 299 294 296 300 298 294 296 298 296 295 299 302 304 306 307 308
301 312 321 328 332 335 338 340 338 340 345 347 351 352 342 334 332 326 312 301 300 299 299 301 301 301 302 303 304 304 305 307 306 305 306 305 305 305 305 303 301 300 299 298 297 294 292 293 295 298 300 301 304 312 319 321 317 313 310 308 306 304 299 295 293 294 296 299 299 296 293 295 299 298 294 296 298 296 296 298 300 303 306 307 308
286 298 308 314 318 322 327 329 329 330 335 340 345 346 340 334 331 325 312 301 302 301 300 299 300 299 300 302 302 302 304 306 304 304 306 307 306 305 304 303 303 302 300 298 297 294 291 291 292 295 300 303 308 313 314 314 312 308 306 303 302 301 298 295 294 293 293 295 296 294 291 294 299 297 294 297 298 297 297 297 298 302 306 307 308
277 289 298 305 309 313 317 320 321 323 328 333 337 339 338 336 333 325 312 306 305 303 300 300 299 298 299 302 303 302 303 303 303 304 306 306 306 305 305 305 304 302 300 298 295 292 291 292 292 295 300 303 306 307 309 310 308 307 306 302 299 298 296 295 294 294 295 296 297 295 292 294 298 296 294 296 298 297 297 298 299 302 304 306 307
269 282 291 297 302 305 308 312 315 317 320 326 330 333 335 337 335 325 313 308 307 303 300 299 299 299 300 301 302 302 301 301 303 304 306 308 307 306 305 305 304 303 302 301 299 297 295 292 292 296 300 302 304 306 307 307 305 305 303 299 298 298 296 293 293 294 295 296 297 298 294 293 297 298 295 296 297 295 296 298 299 302 304 306 307
259 272 283 290 296 300 303 306 308 311 315 319 323 328 332 336 335 325 314 308 305 301 299 299 300 301 301 300 300 300 300 301 302 304 308 309 308 306 306 306 307 307 307 308 307 304 301 299 299 302 304 305 305 305 305 304 302 301 296 291 294 296 293 290 291 294 295 294 295 301 297 293 297 299 297 299 297 293 294 298 300 303 306 307 307
252 265 279 287 292 296 300 303 304 308 311 314 318 323 328 333 334 327 316 309 302 299 300 302 303 303 302 301 300 299 299 301 304 307 309 308 306 308 313 316 315 312 311 313 311 308 307 308 309 309 308 308 308 305 304 303 301 298 292 289 291 292 289 289 290 293 294 292 296 304 299 295 297 298 297 301 300 296 298 300 301 304 306 306 305